TimeEST,TemperatureF,Dew PointF,Humidity,Sea Level PressureIn,VisibilityMPH,Wind Direction,Wind SpeedMPH,Gust SpeedMPH,PrecipitationIn,Events,Conditions,WindDirDegrees,DateUTC
12:54 AM,48.9,39.0,69,30.38,10.0,NNW,5.8,-,N/A,,Clear,330,2013-01-10 05:54:00
1:54 AM,48.2,33.8,58,30.40,10.0,NNW,5.8,-,N/A,,Clear,330,2013-01-10 06:54:00
2:54 AM,50.0,28.9,44,30.41,10.0,North,9.2,-,N/A,,Clear,350,2013-01-10 07:54:00
3:54 AM,48.0,26.1,42,30.42,10.0,North,9.2,-,N/A,,Clear,350,2013-01-10 08:54:00
4:54 AM,48.9,25.0,39,30.43,10.0,North,11.5,-,N/A,,Clear,350,2013-01-10 09:54:00
5:54 AM,48.0,26.1,42,30.45,10.0,NNW,9.2,-,N/A,,Clear,340,2013-01-10 10:54:00
6:54 AM,46.0,26.1,46,30.48,10.0,NNW,6.9,-,N/A,,Clear,340,2013-01-10 11:54:00
7:54 AM,45.0,26.1,48,30.52,10.0,NW,5.8,-,N/A,,Mostly Cloudy,320,2013-01-10 12:54:00
8:54 AM,48.9,26.1,41,30.55,10.0,NNW,9.2,-,N/A,,Partly Cloudy,340,2013-01-10 13:54:00
9:54 AM,52.0,26.1,37,30.56,10.0,North,9.2,-,N/A,,Partly Cloudy,360,2013-01-10 14:54:00
10:54 AM,52.0,25.0,35,30.56,10.0,North,11.5,-,N/A,,Clear,10,2013-01-10 15:54:00
11:54 AM,54.0,25.0,33,30.53,10.0,North,6.9,-,N/A,,Clear,350,2013-01-10 16:54:00
12:54 PM,55.4,26.6,33,30.52,10.0,NNE,9.2,-,N/A,,Mostly Cloudy,20,2013-01-10 17:54:00
1:54 PM,55.9,26.1,32,30.50,10.0,North,6.9,-,N/A,,Mostly Cloudy,350,2013-01-10 18:54:00
2:54 PM,55.9,27.0,33,30.51,10.0,NNE,5.8,-,N/A,,Clear,20,2013-01-10 19:54:00
3:54 PM,55.0,27.0,34,30.51,10.0,NNE,5.8,-,N/A,,Overcast,20,2013-01-10 20:54:00
4:54 PM,50.0,27.0,41,30.50,10.0,NNE,3.5,-,N/A,,Clear,20,2013-01-10 21:54:00
5:54 PM,46.0,35.1,66,30.51,10.0,Calm,Calm,-,N/A,,Clear,0,2013-01-10 22:54:00
6:54 PM,44.1,35.1,71,30.51,10.0,East,5.8,-,N/A,,Clear,90,2013-01-10 23:54:00
7:54 PM,45.0,36.0,71,30.52,10.0,East,3.5,-,N/A,,Clear,80,2013-01-11 00:54:00
8:54 PM,44.1,35.1,71,30.51,10.0,East,3.5,-,N/A,,Clear,90,2013-01-11 01:54:00
9:54 PM,43.0,30.9,62,30.51,10.0,NE,5.8,-,N/A,,Clear,50,2013-01-11 02:54:00
10:54 PM,42.1,30.0,62,30.52,10.0,Calm,Calm,-,N/A,,Clear,0,2013-01-11 03:54:00
11:54 PM,42.1,28.9,60,30.51,10.0,East,4.6,-,N/A,,Clear,80,2013-01-11 04:54:00